Date String (YYYY-MM-DD hh:mm:ss) UTC,Instrument flags,Ambient pressure (hPa),Sample flow (lpm),Bypass flow (lpm),Sample temperature (°C),Ambient temperature (°C),ASC tube jacket temperature (°C),LED temperature (°C),Box temperature (°C),Sample RH (%),Span deviation,Mass concentration (μg/m³),Mass concentration (μg/m³),Mass concentration (μg/m³)
DateTimeUTC,F1_M11,P_M11,Q1_M11,Q2_M11,T1_M11,T2_M11,T3_M11,T4_M11,T5_M11,U1_M11,ZSPAN_M11,X2_M11,X0_M11,X1_M11
2022-04-13 00:00:00,,0809.7,5.00,0.00,22.1,21.9,00.0,31.1,24.0,06.6,0000.0,0003.64,0016.23,0000.76
2022-04-13 00:01:00,,0809.6,5.00,0.00,22.3,22.9,00.0,31.1,24.3,06.6,0000.0,0003.68,0016.64,0000.76
2022-04-13 00:02:00,,0809.5,5.00,0.00,22.4,23.3,00.0,31.2,24.5,06.6,0000.0,0003.55,0016.26,0000.75
2022-04-13 00:03:00,,0809.2,4.99,0.00,22.5,23.0,00.0,31.2,24.4,06.5,0000.0,0003.46,0016.75,0000.74
2022-04-13 00:04:00,,0809.4,5.00,0.00,22.4,22.6,00.0,31.2,24.3,06.4,0000.0,0003.40,0016.58,0000.73
2022-04-13 00:05:00,,0809.4,4.99,0.00,22.4,22.2,00.0,31.2,24.2,06.4,0000.0,0003.34,0016.35,0000.73
2022-04-13 00:06:00,,0809.4,5.00,0.00,22.4,21.9,00.0,31.2,24.1,06.5,0000.0,0003.34,0017.12,0000.73
2022-04-13 00:07:00,,0809.5,5.01,0.00,22.3,21.6,00.0,31.2,24.0,06.5,0000.0,0003.33,0017.85,0000.71
2022-04-13 00:08:00,,0809.5,5.01,0.00,22.3,21.4,00.0,31.2,24.0,06.6,0000.0,0003.34,0016.87,0000.72
2022-04-13 00:09:00,,0809.6,4.99,0.00,22.3,21.2,00.0,31.2,23.9,06.5,0000.0,0003.31,0016.76,0000.73
2022-04-13 00:10:00,,0809.6,5.00,0.00,22.2,21.0,00.0,31.2,23.9,06.6,0000.0,0003.33,0016.20,0000.73
2022-04-13 00:11:00,,0809.8,5.01,0.00,22.2,20.9,00.0,31.1,23.8,06.6,0000.0,0003.30,0015.66,0000.72
2022-04-13 00:12:00,,0809.6,4.99,0.00,22.1,20.8,00.0,31.1,23.7,06.6,0000.0,0003.40,0016.98,0000.75
2022-04-13 00:13:00,,0809.8,4.98,0.00,22.1,20.7,00.0,31.1,23.7,06.6,0000.0,0003.47,0018.35,0000.76
2022-04-13 00:14:00,,0809.7,5.01,0.00,22.1,21.1,00.0,31.1,23.8,06.7,0000.0,0003.35,0016.51,0000.75
2022-04-13 00:15:00,,0809.6,5.00,0.00,22.2,22.1,00.0,31.2,24.1,06.6,0000.0,0003.25,0015.65,0000.74
2022-04-13 00:16:00,,0809.9,5.01,0.00,22.3,23.0,00.0,31.2,24.4,06.5,0000.0,0003.22,0015.44,0000.72
2022-04-13 00:17:00,,0809.7,5.00,0.00,22.5,23.4,00.0,31.3,24.5,06.5,0000.0,0003.20,0014.68,0000.72
2022-04-13 00:18:00,,0809.7,4.99,0.00,22.5,23.0,00.0,31.3,24.5,06.5,0000.0,0003.18,0014.08,0000.72
2022-04-13 00:19:00,,0809.7,5.00,0.00,22.5,22.6,00.0,31.3,24.3,06.5,0000.0,0003.16,0013.83,0000.71
2022-04-13 00:20:00,,0809.7,4.99,0.00,22.5,22.2,00.0,31.3,24.3,06.5,0000.0,0003.15,0013.42,0000.70
2022-04-13 00:21:00,,0809.8,5.01,0.00,22.4,21.9,00.0,31.3,24.2,06.4,0000.0,0003.11,0013.25,0000.70
2022-04-13 00:22:00,,0809.8,4.99,0.00,22.4,21.6,00.0,31.3,24.0,06.5,0000.0,0003.14,0013.77,0000.71
2022-04-13 00:23:00,,0810.0,5.01,0.00,22.3,21.3,00.0,31.2,24.0,06.5,0000.0,0003.12,0012.58,0000.70
2022-04-13 00:24:00,,0810.1,5.00,0.00,22.3,21.2,00.0,31.2,23.9,06.6,0000.0,0002.96,0010.96,0000.67
2022-04-13 00:25:00,,0810.0,5.00,0.00,22.2,21.0,00.0,31.2,23.9,06.7,0000.0,0003.05,0011.64,0000.68
2022-04-13 00:26:00,,0810.0,4.99,0.00,22.2,20.9,00.0,31.2,23.8,06.7,0000.0,0003.12,0012.09,0000.68
2022-04-13 00:27:00,,0810.0,5.00,0.00,22.2,20.8,00.0,31.2,23.8,06.7,0000.0,0003.25,0013.47,0000.71
2022-04-13 00:28:00,,0810.0,5.00,0.00,22.1,20.7,00.0,31.1,23.7,06.6,0000.0,0003.41,0014.74,0000.73
2022-04-13 00:29:00,,0810.2,5.01,0.00,22.1,20.8,00.0,31.1,23.6,06.6,0000.0,0003.48,0015.73,0000.75
2022-04-13 00:30:00,,0810.2,5.00,0.00,22.1,21.6,00.0,31.2,23.9,06.8,0000.0,0003.55,0016.17,0000.78
2022-04-13 00:31:00,,0810.0,5.01,0.00,22.3,22.6,00.0,31.2,24.2,06.7,0000.0,0003.58,0016.97,0000.78
2022-04-13 00:32:00,,0810.2,5.00,0.00,22.4,23.4,00.0,31.3,24.5,06.7,0000.0,0003.69,0018.82,0000.80
2022-04-13 00:33:00,,0810.3,4.99,0.00,22.5,23.2,00.0,31.3,24.5,06.8,0000.0,0003.69,0019.43,0000.80
2022-04-13 00:34:00,,0810.4,4.98,0.00,22.5,22.8,00.0,31.3,24.4,06.7,0000.0,0003.64,0019.56,0000.78
2022-04-13 00:35:00,,0810.3,5.00,0.00,22.5,22.4,00.0,31.3,24.3,06.7,0000.0,0003.59,0019.42,0000.77
2022-04-13 00:36:00,,0810.4,5.00,0.00,22.5,22.1,00.0,31.3,24.2,06.6,0000.0,0003.52,0019.26,0000.75
2022-04-13 00:37:00,,0810.4,5.00,0.00,22.5,21.8,00.0,31.3,24.2,06.7,0000.0,0003.47,0019.71,0000.74
2022-04-13 00:38:00,,0810.1,5.00,0.00,22.4,21.5,00.0,31.3,24.1,06.6,0000.0,0003.43,0018.95,0000.73
2022-04-13 00:39:00,,0810.4,4.99,0.00,22.4,21.3,00.0,31.3,24.0,06.5,0000.0,0003.31,0018.45,0000.71
2022-04-13 00:40:00,,0810.6,5.01,0.00,22.3,21.1,00.0,31.2,23.9,06.7,0000.0,0003.31,0017.79,0000.71
2022-04-13 00:41:00,,0810.5,4.98,0.00,22.3,21.0,00.0,31.2,23.9,06.7,0000.0,0003.23,0017.28,0000.69
2022-04-13 00:42:00,,0810.5,5.00,0.00,22.2,20.9,00.0,31.2,23.8,06.7,0000.0,0003.19,0016.46,0000.68
2022-04-13 00:43:00,,0810.5,5.01,0.00,22.2,20.9,00.0,31.2,23.8,06.8,0000.0,0003.04,0015.19,0000.65
2022-04-13 00:44:00,,0810.4,4.99,0.00,22.1,20.8,00.0,31.2,23.7,06.7,0000.0,0002.91,0013.81,0000.62
2022-04-13 00:45:00,,0810.6,5.01,0.00,22.1,20.9,00.0,31.2,23.7,06.7,0000.0,0002.86,0013.52,0000.62
2022-04-13 00:46:00,,0810.7,4.99,0.00,22.2,21.7,00.0,31.2,23.9,06.7,0000.0,0002.83,0014.53,0000.63
2022-04-13 00:47:00,,0810.7,5.02,0.00,22.3,22.6,00.0,31.3,24.3,06.8,0000.0,0002.90,0013.93,0000.63
2022-04-13 00:48:00,,0810.6,5.00,0.00,22.5,23.4,00.0,31.3,24.5,06.7,0000.0,0002.94,0013.29,0000.63
2022-04-13 00:49:00,,0810.5,4.99,0.00,22.6,23.2,00.0,31.3,24.6,06.6,0000.0,0002.82,0012.41,0000.63
2022-04-13 00:50:00,,0810.3,5.00,0.00,22.6,22.8,00.0,31.3,24.4,06.5,0000.0,0002.79,0011.83,0000.63
2022-04-13 00:51:00,,0810.1,5.00,0.00,22.5,22.3,00.0,31.3,24.3,06.5,0000.0,0002.74,0011.73,0000.62
2022-04-13 00:52:00,,0810.2,5.01,0.00,22.5,21.9,00.0,31.3,24.2,06.5,0000.0,0002.87,0012.38,0000.63
2022-04-13 00:53:00,,0810.3,5.00,0.00,22.4,21.6,00.0,31.3,24.1,06.6,0000.0,0003.06,0013.80,0000.64
2022-04-13 00:54:00,,0810.3,4.99,0.00,22.4,21.3,00.0,31.3,24.0,06.8,0000.0,0003.20,0014.51,0000.66
2022-04-13 00:55:00,,0810.5,5.01,0.00,22.3,21.1,00.0,31.3,23.9,06.8,0000.0,0003.31,0014.73,0000.69
2022-04-13 00:56:00,,0810.6,4.99,0.00,22.3,20.9,00.0,31.2,23.8,07.0,0000.0,0003.32,0014.74,0000.69
2022-04-13 00:57:00,,0810.8,5.01,0.00,22.2,20.8,00.0,31.2,23.8,07.0,0000.0,0003.39,0014.30,0000.70
2022-04-13 00:58:00,,0810.8,4.99,0.00,22.2,20.8,00.0,31.2,23.7,07.1,0000.0,0003.39,0014.37,0000.70
2022-04-13 00:59:00,,0811.0,5.01,0.00,22.2,21.4,00.0,31.2,23.9,07.1,0000.0,0003.41,0014.77,0000.71
